Hourly Weather Barnab

Today, 18 April, Sunday

Time Temperature Precipitation Wind Pressure Humidity
00:00 +7°C° 0 mm 3 mps 614 mmHg 88%
01:00 +7°C° 0.1 mm 2 mps 614 mmHg 90%
02:00 +7°C° 0.1 mm 2 mps 613 mmHg 91%
03:00 +7°C° 0 mm 2 mps 613 mmHg 94%
04:00 +7°C° 0.1 mm 2 mps 613 mmHg 94%
05:00 +7°C° 0.1 mm 2 mps 613 mmHg 94%
06:00 +7°C° 0.1 mm 2 mps 613 mmHg 94%
07:00 +7°C° 0 mm 3 mps 613 mmHg 93%
08:00 +8°C° 0 mm 3 mps 613 mmHg 92%
09:00 +9°C° 0 mm 3 mps 613 mmHg 91%
10:00 +9°C° 0 mm 3 mps 614 mmHg 87%
11:00 +10°C° 0 mm 4 mps 614 mmHg 84%
12:00 +11°C° 0 mm 4 mps 614 mmHg 80%
13:00 +12°C° 0.1 mm 3 mps 614 mmHg 76%
14:00 +12°C° 0.1 mm 3 mps 614 mmHg 71%
15:00 +13°C° 0.1 mm 3 mps 614 mmHg 66%
16:00 +11°C° 0.6 mm 3 mps 613 mmHg 74%
17:00 +10°C° 0.6 mm 2 mps 613 mmHg 82%
18:00 +8°C° 0.6 mm 2 mps 613 mmHg 90%
19:00 +8°C° 0.1 mm 2 mps 613 mmHg 89%
20:00 +8°C° 0.1 mm 2 mps 613 mmHg 89%
21:00 +8°C° 0.1 mm 1 mps 613 mmHg 89%
22:00 +8°C° 0 mm 1 mps 613 mmHg 88%
23:00 +8°C° 0 mm 1 mps 613 mmHg 88%

Tomorrow, 19 April, Monday

Time Temperature Precipitation Wind Pressure Humidity
00:00 +7°C° 0 mm 1 mps 612 mmHg 87%
01:00 +6°C° 0 mm 2 mps 612 mmHg 86%
02:00 +6°C° 0 mm 2 mps 612 mmHg 85%
03:00 +6°C° 0 mm 2 mps 612 mmHg 83%
04:00 +6°C° 0 mm 2 mps 612 mmHg 85%
05:00 +6°C° 0 mm 2 mps 612 mmHg 86%
06:00 +6°C° 0 mm 2 mps 612 mmHg 88%
07:00 +8°C° 0 mm 2 mps 613 mmHg 83%
08:00 +9°C° 0 mm 3 mps 613 mmHg 78%
09:00 +11°C° 0 mm 3 mps 613 mmHg 73%
10:00 +11°C° 0.1 mm 3 mps 614 mmHg 72%
11:00 +12°C° 0.1 mm 3 mps 614 mmHg 71%
12:00 +12°C° 0.1 mm 4 mps 614 mmHg 70%
13:00 +12°C° 0.1 mm 3 mps 614 mmHg 70%
14:00 +12°C° 0.1 mm 3 mps 614 mmHg 71%
15:00 +12°C° 0.1 mm 3 mps 614 mmHg 72%
16:00 +12°C° 0 mm 3 mps 614 mmHg 74%
17:00 +11°C° 0 mm 3 mps 613 mmHg 76%
18:00 +11°C° 0 mm 3 mps 613 mmHg 78%
19:00 +10°C° 0 mm 3 mps 613 mmHg 78%
20:00 +9°C° 0 mm 3 mps 613 mmHg 78%
21:00 +8°C° 0 mm 3 mps 613 mmHg 78%
22:00 +8°C° 0 mm 3 mps 613 mmHg 78%
23:00 +8°C° 0 mm 3 mps 613 mmHg 78%

Day after tomorrow, 20 April, Tuesday

Time Temperature Precipitation Wind Pressure Humidity
00:00 +8°C° 0 mm 3 mps 613 mmHg 79%
01:00 +8°C° 0 mm 3 mps 613 mmHg 79%
02:00 +8°C° 0 mm 3 mps 612 mmHg 80%
03:00 +8°C° 0 mm 3 mps 612 mmHg 81%
04:00 +8°C° 0 mm 3 mps 612 mmHg 80%
05:00 +9°C° 0 mm 3 mps 612 mmHg 79%
06:00 +9°C° 0 mm 2 mps 612 mmHg 78%
07:00 +11°C° 0 mm 3 mps 612 mmHg 70%
08:00 +13°C° 0 mm 3 mps 613 mmHg 63%
09:00 +16°C° 0 mm 3 mps 614 mmHg 56%
10:00 +17°C° 0 mm 3 mps 614 mmHg 54%
11:00 +17°C° 0 mm 4 mps 614 mmHg 52%
12:00 +18°C° 0 mm 4 mps 614 mmHg 50%
13:00 +18°C° 0.1 mm 4 mps 613 mmHg 51%
14:00 +18°C° 0.1 mm 4 mps 613 mmHg 51%
15:00 +18°C° 0.1 mm 4 mps 613 mmHg 51%
16:00 +17°C° 0.1 mm 3 mps 613 mmHg 58%
17:00 +14°C° 0.1 mm 3 mps 612 mmHg 66%
18:00 +13°C° 0.1 mm 3 mps 612 mmHg 74%
19:00 +12°C° 0.1 mm 3 mps 612 mmHg 77%
20:00 +11°C° 0.1 mm 3 mps 612 mmHg 81%
21:00 +10°C° 0.1 mm 3 mps 611 mmHg 84%
22:00 +10°C° 0.2 mm 3 mps 611 mmHg 84%
23:00 +10°C° 0.2 mm 3 mps 611 mmHg 83%

21 April, Wednesday

Time Temperature Precipitation Wind Pressure Humidity
00:00 +10°C° 0.2 mm 3 mps 611 mmHg 83%
01:00 +10°C° 0 mm 3 mps 611 mmHg 83%
02:00 +9°C° 0 mm 3 mps 611 mmHg 83%
03:00 +9°C° 0 mm 3 mps 610 mmHg 83%
04:00 +10°C° 0.3 mm 3 mps 611 mmHg 83%
05:00 +10°C° 0.3 mm 3 mps 611 mmHg 83%
06:00 +10°C° 0.3 mm 2 mps 611 mmHg 83%
07:00 +12°C° 0.4 mm 3 mps 612 mmHg 74%
08:00 +14°C° 0.4 mm 3 mps 612 mmHg 65%
09:00 +17°C° 0.4 mm 4 mps 613 mmHg 56%
10:00 +17°C° 0.5 mm 4 mps 613 mmHg 54%
11:00 +18°C° 0.5 mm 4 mps 613 mmHg 52%
12:00 +17°C° 0.5 mm 5 mps 613 mmHg 50%
13:00 +16°C° 0.7 mm 5 mps 613 mmHg 55%
14:00 +16°C° 0.7 mm 5 mps 613 mmHg 61%
15:00 +15°C° 0.7 mm 5 mps 612 mmHg 67%
16:00 +14°C° 1.2 mm 4 mps 612 mmHg 71%
17:00 +13°C° 1.2 mm 3 mps 612 mmHg 76%
18:00 +12°C° 1.2 mm 3 mps 612 mmHg 81%
19:00 +11°C° 1.1 mm 3 mps 612 mmHg 86%
20:00 +10°C° 1.1 mm 3 mps 612 mmHg 91%
21:00 +9°C° 1.1 mm 3 mps 613 mmHg 96%
22:00 +9°C° 0.4 mm 3 mps 613 mmHg 95%
23:00 +9°C° 0.4 mm 3 mps 613 mmHg 95%

22 April, Thursday

Time Temperature Precipitation Wind Pressure Humidity
00:00 +9°C° 0.4 mm 3 mps 613 mmHg 95%
01:00 +9°C° 0.1 mm 2 mps 613 mmHg 94%
02:00 +9°C° 0.1 mm 2 mps 613 mmHg 94%
03:00 +8°C° 0.1 mm 2 mps 613 mmHg 94%
04:00 +8°C° 0.1 mm 2 mps 613 mmHg 93%
05:00 +8°C° 0.1 mm 2 mps 612 mmHg 93%
06:00 +8°C° 0.1 mm 2 mps 612 mmHg 92%
07:00 +9°C° 0.2 mm 2 mps 613 mmHg 88%
08:00 +10°C° 0.2 mm 3 mps 613 mmHg 85%
09:00 +11°C° 0.2 mm 3 mps 613 mmHg 81%
10:00 +11°C° 0.1 mm 3 mps 613 mmHg 79%
11:00 +11°C° 0.1 mm 3 mps 614 mmHg 77%
12:00 +12°C° 0.1 mm 3 mps 614 mmHg 75%
13:00 +12°C° 0.1 mm 3 mps 614 mmHg 71%
14:00 +12°C° 0.1 mm 3 mps 613 mmHg 68%
15:00 +13°C° 0.1 mm 3 mps 613 mmHg 64%
16:00 +12°C° 0.1 mm 3 mps 613 mmHg 71%
17:00 +12°C° 0.1 mm 2 mps 613 mmHg 77%
18:00 +10°C° 0.1 mm 2 mps 612 mmHg 83%
19:00 +9°C° 0.2 mm 2 mps 612 mmHg 86%
20:00 +8°C° 0.2 mm 2 mps 612 mmHg 90%
21:00 +8°C° 0.2 mm 3 mps 612 mmHg 94%
22:00 +8°C° 0.8 mm 3 mps 612 mmHg 94%
23:00 +8°C° 0.8 mm 3 mps 611 mmHg 95%

23 April, Friday

Time Temperature Precipitation Wind Pressure Humidity
00:00 +7°C° 0.8 mm 4 mps 611 mmHg 96%
01:00 +6°C° 1.2 mm 4 mps 611 mmHg 96%
02:00 +7°C° 1.2 mm 3 mps 611 mmHg 97%
03:00 +7°C° 1.2 mm 3 mps 611 mmHg 97%
04:00 +5°C° 1 mm 3 mps 611 mmHg 97%
05:00 +6°C° 1 mm 2 mps 611 mmHg 97%
06:00 +6°C° 1 mm 2 mps 611 mmHg 97%
07:00 +7°C° 0.1 mm 2 mps 611 mmHg 91%
08:00 +7°C° 0.1 mm 2 mps 612 mmHg 84%
09:00 +8°C° 0.1 mm 3 mps 612 mmHg 77%
10:00 +9°C° 0 mm 3 mps 612 mmHg 69%
11:00 +10°C° 0 mm 3 mps 612 mmHg 61%
12:00 +11°C° 0 mm 4 mps 613 mmHg 54%
13:00 +11°C° 0 mm 3 mps 612 mmHg 51%
14:00 +11°C° 0 mm 3 mps 612 mmHg 49%
15:00 +11°C° 0 mm 3 mps 612 mmHg 47%
16:00 +10°C° 0 mm 3 mps 612 mmHg 53%
17:00 +9°C° 0 mm 3 mps 612 mmHg 59%
18:00 +8°C° 0 mm 2 mps 612 mmHg 65%
19:00 +7°C° 0.1 mm 2 mps 612 mmHg 71%
20:00 +5°C° 0.1 mm 2 mps 612 mmHg 77%
21:00 +4°C° 0.1 mm 2 mps 612 mmHg 83%
22:00 +4°C° 0.1 mm 2 mps 612 mmHg 87%
23:00 +4°C° 0.1 mm 2 mps 612 mmHg 91%
Show more